#datetime,building,power
2022-03-19T00:00:00,prt,19.56
2022-03-19T00:01:00,prt,23.64
2022-03-19T00:02:00,prt,23.90
2022-03-19T00:03:00,prt,23.46
2022-03-19T00:04:00,prt,23.99
2022-03-19T00:05:00,prt,24.21
2022-03-19T00:06:00,prt,23.40
2022-03-19T00:07:00,prt,25.67
2022-03-19T00:08:00,prt,22.11
2022-03-19T00:09:00,prt,18.50
2022-03-19T00:10:00,prt,19.03
2022-03-19T00:11:00,prt,18.08
2022-03-19T00:12:00,prt,16.98
2022-03-19T00:13:00,prt,18.04
2022-03-19T00:14:00,prt,23.22
2022-03-19T00:15:00,prt,25.28
2022-03-19T00:16:00,prt,25.08
2022-03-19T00:17:00,prt,22.45
2022-03-19T00:18:00,prt,22.18
2022-03-19T00:19:00,prt,18.84
2022-03-19T00:20:00,prt,20.34
2022-03-19T00:21:00,prt,20.49
2022-03-19T00:22:00,prt,20.57
2022-03-19T00:23:00,prt,20.31
2022-03-19T00:24:00,prt,19.92
2022-03-19T00:25:00,prt,19.91
2022-03-19T00:26:00,prt,18.35
2022-03-19T00:27:00,prt,18.53
2022-03-19T00:28:00,prt,17.96
2022-03-19T00:29:00,prt,19.25
2022-03-19T00:30:00,prt,17.72
2022-03-19T00:31:00,prt,18.68
2022-03-19T00:32:00,prt,20.14
2022-03-19T00:33:00,prt,19.61
2022-03-19T00:34:00,prt,19.89
2022-03-19T00:35:00,prt,23.06
2022-03-19T00:36:00,prt,23.87
2022-03-19T00:37:00,prt,24.16
2022-03-19T00:38:00,prt,24.07
2022-03-19T00:39:00,prt,23.86
2022-03-19T00:40:00,prt,24.04
2022-03-19T00:41:00,prt,24.16
2022-03-19T00:42:00,prt,25.56
2022-03-19T00:43:00,prt,20.28
2022-03-19T00:44:00,prt,20.69
2022-03-19T00:45:00,prt,19.57
2022-03-19T00:46:00,prt,22.77
2022-03-19T00:47:00,prt,20.88
2022-03-19T00:48:00,prt,20.85
2022-03-19T00:49:00,prt,20.47
2022-03-19T00:50:00,prt,21.59
2022-03-19T00:51:00,prt,19.83
2022-03-19T00:52:00,prt,19.92
2022-03-19T00:53:00,prt,21.81
2022-03-19T00:54:00,prt,22.05
2022-03-19T00:55:00,prt,20.62
2022-03-19T00:56:00,prt,20.47
2022-03-19T00:57:00,prt,19.69
2022-03-19T00:58:00,prt,18.52
2022-03-19T00:59:00,prt,19.94
2022-03-19T01:00:00,prt,19.50
2022-03-19T01:01:00,prt,18.70
2022-03-19T01:02:00,prt,19.36
2022-03-19T01:03:00,prt,19.89
2022-03-19T01:04:00,prt,19.21
2022-03-19T01:05:00,prt,18.73
2022-03-19T01:06:00,prt,18.01
2022-03-19T01:07:00,prt,18.39
2022-03-19T01:08:00,prt,18.09
2022-03-19T01:09:00,prt,17.91
2022-03-19T01:10:00,prt,24.05
2022-03-19T01:11:00,prt,20.36
2022-03-19T01:12:00,prt,20.99
2022-03-19T01:13:00,prt,21.12
2022-03-19T01:14:00,prt,21.40
2022-03-19T01:15:00,prt,20.14
2022-03-19T01:16:00,prt,19.35
2022-03-19T01:17:00,prt,20.43
2022-03-19T01:18:00,prt,18.48
2022-03-19T01:19:00,prt,17.77
2022-03-19T01:20:00,prt,18.90
2022-03-19T01:21:00,prt,19.64
2022-03-19T01:22:00,prt,19.44
2022-03-19T01:23:00,prt,20.03
2022-03-19T01:24:00,prt,18.52
2022-03-19T01:25:00,prt,20.64
2022-03-19T01:26:00,prt,20.70
2022-03-19T01:27:00,prt,20.85
2022-03-19T01:28:00,prt,20.57
2022-03-19T01:29:00,prt,20.11
2022-03-19T01:30:00,prt,19.71
2022-03-19T01:31:00,prt,19.55
2022-03-19T01:32:00,prt,23.77
2022-03-19T01:33:00,prt,23.10
2022-03-19T01:34:00,prt,21.86
2022-03-19T01:35:00,prt,20.69
2022-03-19T01:36:00,prt,18.18
2022-03-19T01:37:00,prt,17.86
2022-03-19T01:38:00,prt,18.00
2022-03-19T01:39:00,prt,16.85
2022-03-19T01:40:00,prt,16.91
2022-03-19T01:41:00,prt,16.87
2022-03-19T01:42:00,prt,17.41
2022-03-19T01:43:00,prt,18.23
2022-03-19T01:44:00,prt,20.27
2022-03-19T01:45:00,prt,21.58
2022-03-19T01:46:00,prt,22.50
2022-03-19T01:47:00,prt,21.35
2022-03-19T01:48:00,prt,23.84
2022-03-19T01:49:00,prt,20.61
2022-03-19T01:50:00,prt,21.30
2022-03-19T01:51:00,prt,19.62
2022-03-19T01:52:00,prt,21.48
2022-03-19T01:53:00,prt,21.59
2022-03-19T01:54:00,prt,18.64
2022-03-19T01:55:00,prt,17.60
2022-03-19T01:56:00,prt,17.32
2022-03-19T01:57:00,prt,18.95
2022-03-19T01:58:00,prt,19.29
2022-03-19T01:59:00,prt,20.10
2022-03-19T02:00:00,prt,20.11
2022-03-19T02:01:00,prt,19.27
2022-03-19T02:02:00,prt,18.90
2022-03-19T02:03:00,prt,18.67
2022-03-19T02:04:00,prt,18.46
2022-03-19T02:05:00,prt,18.33
2022-03-19T02:06:00,prt,19.07
2022-03-19T02:07:00,prt,21.77
2022-03-19T02:08:00,prt,22.41
2022-03-19T02:09:00,prt,20.11
2022-03-19T02:10:00,prt,19.41
2022-03-19T02:11:00,prt,22.59
2022-03-19T02:12:00,prt,22.65
2022-03-19T02:13:00,prt,23.18
2022-03-19T02:14:00,prt,25.73
2022-03-19T02:15:00,prt,25.58
2022-03-19T02:16:00,prt,19.76
2022-03-19T02:17:00,prt,21.21
2022-03-19T02:18:00,prt,20.52
2022-03-19T02:19:00,prt,19.60
2022-03-19T02:20:00,prt,20.47
2022-03-19T02:21:00,prt,24.16
2022-03-19T02:22:00,prt,23.12
2022-03-19T02:23:00,prt,26.90
2022-03-19T02:24:00,prt,25.15
2022-03-19T02:25:00,prt,26.16
2022-03-19T02:26:00,prt,26.52
2022-03-19T02:27:00,prt,27.08
2022-03-19T02:28:00,prt,26.86
2022-03-19T02:29:00,prt,21.03
2022-03-19T02:30:00,prt,20.82
2022-03-19T02:31:00,prt,18.01
2022-03-19T02:32:00,prt,17.45
2022-03-19T02:33:00,prt,17.47
2022-03-19T02:34:00,prt,17.60
2022-03-19T02:35:00,prt,17.47
2022-03-19T02:36:00,prt,18.53
2022-03-19T02:37:00,prt,18.93
2022-03-19T02:38:00,prt,21.07
2022-03-19T02:39:00,prt,19.82
2022-03-19T02:40:00,prt,20.77
2022-03-19T02:41:00,prt,21.59
2022-03-19T02:42:00,prt,21.64
2022-03-19T02:43:00,prt,19.58
2022-03-19T02:44:00,prt,18.68
2022-03-19T02:45:00,prt,18.80
2022-03-19T02:46:00,prt,20.26
2022-03-19T02:47:00,prt,22.34
2022-03-19T02:48:00,prt,22.10
2022-03-19T02:49:00,prt,21.91
2022-03-19T02:50:00,prt,20.27
2022-03-19T02:51:00,prt,24.50
2022-03-19T02:52:00,prt,24.95
2022-03-19T02:53:00,prt,22.49
2022-03-19T02:54:00,prt,23.13
2022-03-19T02:55:00,prt,20.52
2022-03-19T02:56:00,prt,20.64
2022-03-19T02:57:00,prt,22.74
2022-03-19T02:58:00,prt,22.57
2022-03-19T02:59:00,prt,21.20
2022-03-19T03:00:00,prt,20.82
2022-03-19T03:01:00,prt,21.04
2022-03-19T03:02:00,prt,20.47
2022-03-19T03:03:00,prt,21.48
2022-03-19T03:04:00,prt,21.24
2022-03-19T03:05:00,prt,18.40
2022-03-19T03:06:00,prt,18.75
2022-03-19T03:07:00,prt,20.97
2022-03-19T03:08:00,prt,20.53
2022-03-19T03:09:00,prt,20.17
2022-03-19T03:10:00,prt,21.96
2022-03-19T03:11:00,prt,21.62
2022-03-19T03:12:00,prt,20.89
2022-03-19T03:13:00,prt,20.42
2022-03-19T03:14:00,prt,20.32
2022-03-19T03:15:00,prt,20.31
2022-03-19T03:16:00,prt,20.55
2022-03-19T03:17:00,prt,20.96
2022-03-19T03:18:00,prt,21.09
2022-03-19T03:19:00,prt,20.33
2022-03-19T03:20:00,prt,22.57
2022-03-19T03:21:00,prt,20.46
2022-03-19T03:22:00,prt,21.52
2022-03-19T03:23:00,prt,21.12
2022-03-19T03:24:00,prt,20.06
2022-03-19T03:25:00,prt,20.32
2022-03-19T03:26:00,prt,20.41
2022-03-19T03:27:00,prt,18.49
2022-03-19T03:28:00,prt,19.33
2022-03-19T03:29:00,prt,18.07
2022-03-19T03:30:00,prt,23.26
2022-03-19T03:31:00,prt,22.46
2022-03-19T03:32:00,prt,25.40
2022-03-19T03:33:00,prt,24.13
2022-03-19T03:34:00,prt,24.61
2022-03-19T03:35:00,prt,21.63
2022-03-19T03:36:00,prt,21.73
2022-03-19T03:37:00,prt,21.60
2022-03-19T03:38:00,prt,20.77
2022-03-19T03:39:00,prt,20.61
2022-03-19T03:40:00,prt,18.28
2022-03-19T03:41:00,prt,20.03
2022-03-19T03:42:00,prt,18.55
2022-03-19T03:43:00,prt,18.78
2022-03-19T03:44:00,prt,18.92
2022-03-19T03:45:00,prt,17.60
2022-03-19T03:46:00,prt,17.50
2022-03-19T03:47:00,prt,18.17
2022-03-19T03:48:00,prt,18.79
2022-03-19T03:49:00,prt,19.48
2022-03-19T03:50:00,prt,20.21
2022-03-19T03:51:00,prt,20.23
2022-03-19T03:52:00,prt,19.15
2022-03-19T03:53:00,prt,20.32
2022-03-19T03:54:00,prt,21.58
2022-03-19T03:55:00,prt,17.63
2022-03-19T03:56:00,prt,16.44
2022-03-19T03:57:00,prt,16.68
2022-03-19T03:58:00,prt,17.42
2022-03-19T03:59:00,prt,16.90
2022-03-19T04:00:00,prt,17.42
2022-03-19T04:01:00,prt,18.11
2022-03-19T04:02:00,prt,19.32
2022-03-19T04:03:00,prt,19.40
2022-03-19T04:04:00,prt,19.28
2022-03-19T04:05:00,prt,19.12
2022-03-19T04:06:00,prt,19.95
2022-03-19T04:07:00,prt,22.12
2022-03-19T04:08:00,prt,23.13
2022-03-19T04:09:00,prt,23.47
2022-03-19T04:10:00,prt,26.28
2022-03-19T04:11:00,prt,25.96
2022-03-19T04:12:00,prt,29.61
2022-03-19T04:13:00,prt,26.71
2022-03-19T04:14:00,prt,23.67
2022-03-19T04:15:00,prt,23.00
2022-03-19T04:16:00,prt,20.60
2022-03-19T04:17:00,prt,21.67
2022-03-19T04:18:00,prt,19.99
2022-03-19T04:19:00,prt,21.06
2022-03-19T04:20:00,prt,20.39
2022-03-19T04:21:00,prt,16.89
2022-03-19T04:22:00,prt,16.31
2022-03-19T04:23:00,prt,16.94
2022-03-19T04:24:00,prt,19.27
2022-03-19T04:25:00,prt,18.66
2022-03-19T04:26:00,prt,17.92
2022-03-19T04:27:00,prt,18.90
2022-03-19T04:28:00,prt,17.77
2022-03-19T04:29:00,prt,23.49
2022-03-19T04:30:00,prt,23.73
2022-03-19T04:31:00,prt,18.42
2022-03-19T04:32:00,prt,20.48
2022-03-19T04:33:00,prt,21.80
2022-03-19T04:34:00,prt,20.75
2022-03-19T04:35:00,prt,21.28
2022-03-19T04:36:00,prt,19.38
2022-03-19T04:37:00,prt,17.23
2022-03-19T04:38:00,prt,17.39
2022-03-19T04:39:00,prt,16.76
2022-03-19T04:40:00,prt,17.77
2022-03-19T04:41:00,prt,17.73
2022-03-19T04:42:00,prt,17.89
2022-03-19T04:43:00,prt,19.92
2022-03-19T04:44:00,prt,21.08
2022-03-19T04:45:00,prt,21.56
2022-03-19T04:46:00,prt,22.74
2022-03-19T04:47:00,prt,22.07
2022-03-19T04:48:00,prt,20.11
2022-03-19T04:49:00,prt,23.54
2022-03-19T04:50:00,prt,24.22
2022-03-19T04:51:00,prt,21.96
2022-03-19T04:52:00,prt,21.92
2022-03-19T04:53:00,prt,22.89
2022-03-19T04:54:00,prt,19.64
2022-03-19T04:55:00,prt,20.89
2022-03-19T04:56:00,prt,21.69
2022-03-19T04:57:00,prt,21.22
2022-03-19T04:58:00,prt,21.02
2022-03-19T04:59:00,prt,20.62
2022-03-19T05:00:00,prt,19.14
2022-03-19T05:01:00,prt,22.30
2022-03-19T05:02:00,prt,20.88
2022-03-19T05:03:00,prt,20.26
2022-03-19T05:04:00,prt,19.92
2022-03-19T05:05:00,prt,18.80
2022-03-19T05:06:00,prt,20.95
2022-03-19T05:07:00,prt,23.69
2022-03-19T05:08:00,prt,20.79
2022-03-19T05:09:00,prt,20.73
2022-03-19T05:10:00,prt,19.77
2022-03-19T05:11:00,prt,21.89
2022-03-19T05:12:00,prt,17.99
2022-03-19T05:13:00,prt,18.70
2022-03-19T05:14:00,prt,18.04
2022-03-19T05:15:00,prt,18.27
2022-03-19T05:16:00,prt,20.89
2022-03-19T05:17:00,prt,18.54
2022-03-19T05:18:00,prt,19.02
2022-03-19T05:19:00,prt,23.83
2022-03-19T05:20:00,prt,24.27
2022-03-19T05:21:00,prt,24.07
2022-03-19T05:22:00,prt,24.26
2022-03-19T05:23:00,prt,23.08
2022-03-19T05:24:00,prt,24.43
2022-03-19T05:25:00,prt,20.07
2022-03-19T05:26:00,prt,20.12
2022-03-19T05:27:00,prt,17.29
2022-03-19T05:28:00,prt,18.09
2022-03-19T05:29:00,prt,21.79
2022-03-19T05:30:00,prt,21.04
2022-03-19T05:31:00,prt,22.02
2022-03-19T05:32:00,prt,22.46
2022-03-19T05:33:00,prt,20.63
2022-03-19T05:34:00,prt,18.37
2022-03-19T05:35:00,prt,18.06
2022-03-19T05:36:00,prt,18.60
2022-03-19T05:37:00,prt,22.02
2022-03-19T05:38:00,prt,21.08
2022-03-19T05:39:00,prt,21.26
2022-03-19T05:40:00,prt,21.71
2022-03-19T05:41:00,prt,21.47
2022-03-19T05:42:00,prt,20.71
2022-03-19T05:43:00,prt,20.07
2022-03-19T05:44:00,prt,18.88
2022-03-19T05:45:00,prt,18.74
2022-03-19T05:46:00,prt,19.60
2022-03-19T05:47:00,prt,18.50
2022-03-19T05:48:00,prt,18.71
2022-03-19T05:49:00,prt,17.44
2022-03-19T05:50:00,prt,17.11
2022-03-19T05:51:00,prt,16.32
2022-03-19T05:52:00,prt,16.31
2022-03-19T05:53:00,prt,18.52
2022-03-19T05:54:00,prt,18.05
2022-03-19T05:55:00,prt,21.19
2022-03-19T05:56:00,prt,20.94
2022-03-19T05:57:00,prt,21.37
2022-03-19T05:58:00,prt,21.89
2022-03-19T05:59:00,prt,20.36
2022-03-19T06:00:00,prt,22.67
2022-03-19T06:01:00,prt,21.34
2022-03-19T06:02:00,prt,21.58
2022-03-19T06:03:00,prt,20.54
2022-03-19T06:04:00,prt,22.06
2022-03-19T06:05:00,prt,21.49
2022-03-19T06:06:00,prt,18.17
2022-03-19T06:07:00,prt,17.05
2022-03-19T06:08:00,prt,17.87
2022-03-19T06:09:00,prt,21.97
2022-03-19T06:10:00,prt,21.86
2022-03-19T06:11:00,prt,21.55
2022-03-19T06:12:00,prt,21.34
2022-03-19T06:13:00,prt,18.02
2022-03-19T06:14:00,prt,17.65
2022-03-19T06:15:00,prt,17.29
2022-03-19T06:16:00,prt,17.17
2022-03-19T06:17:00,prt,17.10
2022-03-19T06:18:00,prt,17.57
2022-03-19T06:19:00,prt,19.15
2022-03-19T06:20:00,prt,22.79
2022-03-19T06:21:00,prt,19.96
2022-03-19T06:22:00,prt,20.99
2022-03-19T06:23:00,prt,21.02
2022-03-19T06:24:00,prt,23.01
2022-03-19T06:25:00,prt,23.34
2022-03-19T06:26:00,prt,20.46
2022-03-19T06:27:00,prt,19.02
2022-03-19T06:28:00,prt,19.58
2022-03-19T06:29:00,prt,17.77
2022-03-19T06:30:00,prt,18.40
2022-03-19T06:31:00,prt,19.22
2022-03-19T06:32:00,prt,22.98
2022-03-19T06:33:00,prt,23.53
2022-03-19T06:34:00,prt,23.32
2022-03-19T06:35:00,prt,22.31
2022-03-19T06:36:00,prt,22.23
2022-03-19T06:37:00,prt,23.44
2022-03-19T06:38:00,prt,25.14
2022-03-19T06:39:00,prt,21.35
2022-03-19T06:40:00,prt,19.16
2022-03-19T06:41:00,prt,18.96
2022-03-19T06:42:00,prt,19.78
2022-03-19T06:43:00,prt,20.22
2022-03-19T06:44:00,prt,22.38
2022-03-19T06:45:00,prt,21.62
2022-03-19T06:46:00,prt,21.22
2022-03-19T06:47:00,prt,22.36
2022-03-19T06:48:00,prt,28.89
2022-03-19T06:49:00,prt,28.50
2022-03-19T06:50:00,prt,26.68
2022-03-19T06:51:00,prt,24.38
2022-03-19T06:52:00,prt,24.19
2022-03-19T06:53:00,prt,21.12
2022-03-19T06:54:00,prt,20.57
2022-03-19T06:55:00,prt,22.77
2022-03-19T06:56:00,prt,22.96
2022-03-19T06:57:00,prt,18.13
2022-03-19T06:58:00,prt,18.69
2022-03-19T06:59:00,prt,20.96
2022-03-19T07:00:00,prt,21.66
2022-03-19T07:01:00,prt,21.03
2022-03-19T07:02:00,prt,21.04
2022-03-19T07:03:00,prt,20.94
2022-03-19T07:04:00,prt,20.40
2022-03-19T07:05:00,prt,17.94
2022-03-19T07:06:00,prt,17.91
2022-03-19T07:07:00,prt,19.90
2022-03-19T07:08:00,prt,20.93
2022-03-19T07:09:00,prt,19.58
2022-03-19T07:10:00,prt,20.06
2022-03-19T07:11:00,prt,20.09
2022-03-19T07:12:00,prt,20.01
2022-03-19T07:13:00,prt,24.71
2022-03-19T07:14:00,prt,24.38
2022-03-19T07:15:00,prt,21.57
2022-03-19T07:16:00,prt,18.79
2022-03-19T07:17:00,prt,23.66
2022-03-19T07:18:00,prt,22.85
2022-03-19T07:19:00,prt,20.82
2022-03-19T07:20:00,prt,18.59
2022-03-19T07:21:00,prt,18.69
2022-03-19T07:22:00,prt,18.11
2022-03-19T07:23:00,prt,20.20
2022-03-19T07:24:00,prt,18.60
2022-03-19T07:25:00,prt,18.47
2022-03-19T07:26:00,prt,18.24
2022-03-19T07:27:00,prt,17.95
2022-03-19T07:28:00,prt,20.95
2022-03-19T07:29:00,prt,21.16
2022-03-19T07:30:00,prt,21.28
2022-03-19T07:31:00,prt,22.10
2022-03-19T07:32:00,prt,20.51
2022-03-19T07:33:00,prt,16.95
2022-03-19T07:34:00,prt,19.50
2022-03-19T07:35:00,prt,20.95
2022-03-19T07:36:00,prt,18.97
2022-03-19T07:37:00,prt,18.94
2022-03-19T07:38:00,prt,19.90
2022-03-19T07:39:00,prt,19.84
2022-03-19T07:40:00,prt,19.42
2022-03-19T07:41:00,prt,19.53
2022-03-19T07:42:00,prt,21.60
2022-03-19T07:43:00,prt,22.34
2022-03-19T07:44:00,prt,22.39
2022-03-19T07:45:00,prt,24.78
2022-03-19T07:46:00,prt,24.40
2022-03-19T07:47:00,prt,24.98
2022-03-19T07:48:00,prt,23.23
2022-03-19T07:49:00,prt,21.20
2022-03-19T07:50:00,prt,21.53
2022-03-19T07:51:00,prt,23.40
2022-03-19T07:52:00,prt,22.36
2022-03-19T07:53:00,prt,18.84
2022-03-19T07:54:00,prt,18.01
2022-03-19T07:55:00,prt,18.31
2022-03-19T07:56:00,prt,18.60
2022-03-19T07:57:00,prt,18.69
2022-03-19T07:58:00,prt,18.92
2022-03-19T07:59:00,prt,17.61
2022-03-19T08:00:00,prt,18.52
2022-03-19T08:01:00,prt,18.64
2022-03-19T08:02:00,prt,17.34
2022-03-19T08:03:00,prt,21.60
2022-03-19T08:04:00,prt,16.20
2022-03-19T08:05:00,prt,15.74
2022-03-19T08:06:00,prt,16.88
2022-03-19T08:07:00,prt,16.94
2022-03-19T08:08:00,prt,20.96
2022-03-19T08:09:00,prt,22.16
2022-03-19T08:10:00,prt,22.08
2022-03-19T08:11:00,prt,20.60
2022-03-19T08:12:00,prt,17.57
2022-03-19T08:13:00,prt,17.99
2022-03-19T08:14:00,prt,17.62
2022-03-19T08:15:00,prt,17.87
2022-03-19T08:16:00,prt,17.45
2022-03-19T08:17:00,prt,17.47
2022-03-19T08:18:00,prt,16.96
2022-03-19T08:19:00,prt,16.68
2022-03-19T08:20:00,prt,18.18
2022-03-19T08:21:00,prt,18.55
2022-03-19T08:22:00,prt,22.47
2022-03-19T08:23:00,prt,22.79
2022-03-19T08:24:00,prt,25.60
2022-03-19T08:25:00,prt,25.08
2022-03-19T08:26:00,prt,25.59
2022-03-19T08:27:00,prt,24.31
2022-03-19T08:28:00,prt,20.30
2022-03-19T08:29:00,prt,19.32
2022-03-19T08:30:00,prt,18.13
2022-03-19T08:31:00,prt,21.19
2022-03-19T08:32:00,prt,25.45
2022-03-19T08:33:00,prt,25.12
2022-03-19T08:34:00,prt,22.24
2022-03-19T08:35:00,prt,25.16
2022-03-19T08:36:00,prt,25.57
2022-03-19T08:37:00,prt,23.49
2022-03-19T08:38:00,prt,23.37
2022-03-19T08:39:00,prt,22.70
2022-03-19T08:40:00,prt,20.19
2022-03-19T08:41:00,prt,21.60
2022-03-19T08:42:00,prt,18.09
2022-03-19T08:43:00,prt,17.90
2022-03-19T08:44:00,prt,16.77
2022-03-19T08:45:00,prt,17.45
2022-03-19T08:46:00,prt,17.38
2022-03-19T08:47:00,prt,18.08
2022-03-19T08:48:00,prt,21.28
2022-03-19T08:49:00,prt,21.09
2022-03-19T08:50:00,prt,20.65
2022-03-19T08:51:00,prt,21.19
2022-03-19T08:52:00,prt,17.39
2022-03-19T08:53:00,prt,18.75
2022-03-19T08:54:00,prt,18.14
2022-03-19T08:55:00,prt,16.19
2022-03-19T08:56:00,prt,20.04
2022-03-19T08:57:00,prt,20.70
2022-03-19T08:58:00,prt,20.47
2022-03-19T08:59:00,prt,20.05
2022-03-19T09:00:00,prt,19.02
2022-03-19T09:01:00,prt,19.49
2022-03-19T09:02:00,prt,19.72
2022-03-19T09:03:00,prt,19.07
2022-03-19T09:04:00,prt,21.24
2022-03-19T09:05:00,prt,17.40
2022-03-19T09:06:00,prt,17.29
2022-03-19T09:07:00,prt,17.94
2022-03-19T09:08:00,prt,18.02
2022-03-19T09:09:00,prt,18.49
2022-03-19T09:10:00,prt,19.21
2022-03-19T09:11:00,prt,18.79
2022-03-19T09:12:00,prt,18.46
2022-03-19T09:13:00,prt,18.05
2022-03-19T09:14:00,prt,22.03
2022-03-19T09:15:00,prt,25.06
2022-03-19T09:16:00,prt,18.41
2022-03-19T09:17:00,prt,18.89
2022-03-19T09:18:00,prt,18.16
2022-03-19T09:19:00,prt,18.55
2022-03-19T09:20:00,prt,18.95
2022-03-19T09:21:00,prt,20.24
2022-03-19T09:22:00,prt,24.94
2022-03-19T09:23:00,prt,23.70
2022-03-19T09:24:00,prt,23.83
2022-03-19T09:25:00,prt,22.66
2022-03-19T09:26:00,prt,22.23
2022-03-19T09:27:00,prt,26.53
2022-03-19T09:28:00,prt,27.85
2022-03-19T09:29:00,prt,28.62
2022-03-19T09:30:00,prt,28.59
2022-03-19T09:31:00,prt,27.84
2022-03-19T09:32:00,prt,24.76
2022-03-19T09:33:00,prt,22.37
2022-03-19T09:34:00,prt,19.13
2022-03-19T09:35:00,prt,18.00
2022-03-19T09:36:00,prt,18.09
2022-03-19T09:37:00,prt,19.67
2022-03-19T09:38:00,prt,19.58
2022-03-19T09:39:00,prt,21.47
2022-03-19T09:40:00,prt,21.24
2022-03-19T09:41:00,prt,21.97
2022-03-19T09:42:00,prt,21.36
2022-03-19T09:43:00,prt,20.18
2022-03-19T09:44:00,prt,21.27
2022-03-19T09:45:00,prt,20.35
2022-03-19T09:46:00,prt,20.31
2022-03-19T09:47:00,prt,19.98
2022-03-19T09:48:00,prt,19.36
2022-03-19T09:49:00,prt,20.52
2022-03-19T09:50:00,prt,20.75
2022-03-19T09:51:00,prt,20.30
2022-03-19T09:52:00,prt,21.29
2022-03-19T09:53:00,prt,21.32
2022-03-19T09:54:00,prt,21.73
2022-03-19T09:55:00,prt,22.29
2022-03-19T09:56:00,prt,25.83
2022-03-19T09:57:00,prt,21.98
2022-03-19T09:58:00,prt,22.72
2022-03-19T09:59:00,prt,21.42
2022-03-19T10:00:00,prt,19.12
2022-03-19T10:01:00,prt,20.39
2022-03-19T10:02:00,prt,19.68
2022-03-19T10:03:00,prt,23.18
2022-03-19T10:04:00,prt,23.86
2022-03-19T10:05:00,prt,21.40
2022-03-19T10:06:00,prt,21.31
2022-03-19T10:07:00,prt,24.25
2022-03-19T10:08:00,prt,26.02
2022-03-19T10:09:00,prt,24.54
2022-03-19T10:10:00,prt,25.26
2022-03-19T10:11:00,prt,27.81
2022-03-19T10:12:00,prt,24.29
2022-03-19T10:13:00,prt,22.19
2022-03-19T10:14:00,prt,22.33
2022-03-19T10:15:00,prt,24.48
2022-03-19T10:16:00,prt,23.57
2022-03-19T10:17:00,prt,23.94
2022-03-19T10:18:00,prt,23.96
2022-03-19T10:19:00,prt,24.07
2022-03-19T10:20:00,prt,21.08
2022-03-19T10:21:00,prt,21.52
2022-03-19T10:22:00,prt,22.68
2022-03-19T10:23:00,prt,20.75
2022-03-19T10:24:00,prt,21.24
2022-03-19T10:25:00,prt,20.67
2022-03-19T10:26:00,prt,20.14
2022-03-19T10:27:00,prt,18.69
2022-03-19T10:28:00,prt,18.17
2022-03-19T10:29:00,prt,19.12
2022-03-19T10:30:00,prt,18.39
2022-03-19T10:31:00,prt,18.72
2022-03-19T10:32:00,prt,19.94
2022-03-19T10:33:00,prt,20.65
2022-03-19T10:34:00,prt,20.18
2022-03-19T10:35:00,prt,21.30
2022-03-19T10:36:00,prt,21.45
2022-03-19T10:37:00,prt,24.56
2022-03-19T10:38:00,prt,18.78
2022-03-19T10:39:00,prt,19.68
2022-03-19T10:40:00,prt,19.32
2022-03-19T10:41:00,prt,23.20
2022-03-19T10:42:00,prt,23.37
2022-03-19T10:43:00,prt,22.12
2022-03-19T10:44:00,prt,21.48
2022-03-19T10:45:00,prt,20.82
2022-03-19T10:46:00,prt,21.33
2022-03-19T10:47:00,prt,22.07
2022-03-19T10:48:00,prt,23.01
2022-03-19T10:49:00,prt,20.90
2022-03-19T10:50:00,prt,21.70
2022-03-19T10:51:00,prt,19.72
2022-03-19T10:52:00,prt,17.32
2022-03-19T10:53:00,prt,17.67
2022-03-19T10:54:00,prt,17.92
2022-03-19T10:55:00,prt,18.89
2022-03-19T10:56:00,prt,17.40
2022-03-19T10:57:00,prt,16.21
2022-03-19T10:58:00,prt,16.22
2022-03-19T10:59:00,prt,16.08
2022-03-19T11:00:00,prt,16.70
2022-03-19T11:01:00,prt,17.77
2022-03-19T11:02:00,prt,18.46
2022-03-19T11:03:00,prt,18.73
2022-03-19T11:04:00,prt,21.15
2022-03-19T11:05:00,prt,18.10
2022-03-19T11:06:00,prt,20.26
2022-03-19T11:07:00,prt,22.42
2022-03-19T11:08:00,prt,24.04
2022-03-19T11:09:00,prt,22.63
2022-03-19T11:10:00,prt,22.82
2022-03-19T11:11:00,prt,21.76
2022-03-19T11:12:00,prt,19.12
2022-03-19T11:13:00,prt,20.44
2022-03-19T11:14:00,prt,19.55
2022-03-19T11:15:00,prt,20.17
2022-03-19T11:16:00,prt,20.91
2022-03-19T11:17:00,prt,19.71
2022-03-19T11:18:00,prt,19.78
2022-03-19T11:19:00,prt,18.96
2022-03-19T11:20:00,prt,19.58
2022-03-19T11:21:00,prt,19.78
2022-03-19T11:22:00,prt,20.01
2022-03-19T11:23:00,prt,20.89
2022-03-19T11:24:00,prt,19.59
2022-03-19T11:25:00,prt,19.91
2022-03-19T11:26:00,prt,23.62
2022-03-19T11:27:00,prt,21.77
2022-03-19T11:28:00,prt,21.45
2022-03-19T11:29:00,prt,20.77
2022-03-19T11:30:00,prt,19.31
2022-03-19T11:31:00,prt,16.75
2022-03-19T11:32:00,prt,19.81
2022-03-19T11:33:00,prt,19.90
2022-03-19T11:34:00,prt,24.91
2022-03-19T11:35:00,prt,25.08
2022-03-19T11:36:00,prt,22.00
2022-03-19T11:37:00,prt,21.07
2022-03-19T11:38:00,prt,18.74
2022-03-19T11:39:00,prt,16.48
2022-03-19T11:40:00,prt,16.05
2022-03-19T11:41:00,prt,16.50
2022-03-19T11:42:00,prt,17.31
2022-03-19T11:43:00,prt,17.75
2022-03-19T11:44:00,prt,17.82
2022-03-19T11:45:00,prt,17.28
2022-03-19T11:46:00,prt,17.36
2022-03-19T11:47:00,prt,17.18
2022-03-19T11:48:00,prt,20.01
2022-03-19T11:49:00,prt,17.44
2022-03-19T11:50:00,prt,20.60
2022-03-19T11:51:00,prt,18.45
2022-03-19T11:52:00,prt,16.95
2022-03-19T11:53:00,prt,16.93
2022-03-19T11:54:00,prt,16.43
2022-03-19T11:55:00,prt,17.52
2022-03-19T11:56:00,prt,17.68
2022-03-19T11:57:00,prt,20.94
2022-03-19T11:58:00,prt,21.46
2022-03-19T11:59:00,prt,21.43
2022-03-19T12:00:00,prt,20.35
2022-03-19T12:01:00,prt,19.26
2022-03-19T12:02:00,prt,20.08
2022-03-19T12:03:00,prt,17.86
2022-03-19T12:04:00,prt,19.32
2022-03-19T12:05:00,prt,17.83
2022-03-19T12:06:00,prt,21.74
2022-03-19T12:07:00,prt,21.15
2022-03-19T12:08:00,prt,25.07
2022-03-19T12:09:00,prt,25.27
2022-03-19T12:10:00,prt,19.87
2022-03-19T12:11:00,prt,19.30
2022-03-19T12:12:00,prt,19.22
2022-03-19T12:13:00,prt,18.66
2022-03-19T12:14:00,prt,19.98
2022-03-19T12:15:00,prt,20.63
2022-03-19T12:16:00,prt,20.49
2022-03-19T12:17:00,prt,20.96
2022-03-19T12:18:00,prt,21.00
2022-03-19T12:19:00,prt,20.59
2022-03-19T12:20:00,prt,21.43
2022-03-19T12:21:00,prt,20.01
2022-03-19T12:22:00,prt,19.02
2022-03-19T12:23:00,prt,22.67
2022-03-19T12:24:00,prt,22.01
2022-03-19T12:25:00,prt,21.89
2022-03-19T12:26:00,prt,20.64
2022-03-19T12:27:00,prt,20.15
2022-03-19T12:28:00,prt,19.73
2022-03-19T12:29:00,prt,17.07
2022-03-19T12:30:00,prt,18.16
2022-03-19T12:31:00,prt,17.60
2022-03-19T12:32:00,prt,17.49
2022-03-19T12:33:00,prt,19.07
2022-03-19T12:34:00,prt,18.89
2022-03-19T12:35:00,prt,18.32
2022-03-19T12:36:00,prt,17.97
2022-03-19T12:37:00,prt,17.87
2022-03-19T12:38:00,prt,17.96
2022-03-19T12:39:00,prt,18.15
2022-03-19T12:40:00,prt,18.16
2022-03-19T12:41:00,prt,17.57
2022-03-19T12:42:00,prt,15.81
2022-03-19T12:43:00,prt,16.27
2022-03-19T12:44:00,prt,16.92
2022-03-19T12:45:00,prt,23.96
2022-03-19T12:46:00,prt,24.52
2022-03-19T12:47:00,prt,23.01
2022-03-19T12:48:00,prt,22.30
2022-03-19T12:49:00,prt,23.33
2022-03-19T12:50:00,prt,20.48
2022-03-19T12:51:00,prt,20.48
2022-03-19T12:52:00,prt,20.13
2022-03-19T12:53:00,prt,19.58
2022-03-19T12:54:00,prt,19.51
2022-03-19T12:55:00,prt,19.05
2022-03-19T12:56:00,prt,16.13
2022-03-19T12:57:00,prt,18.46
2022-03-19T12:58:00,prt,18.45
2022-03-19T12:59:00,prt,19.07
2022-03-19T13:00:00,prt,21.18
2022-03-19T13:01:00,prt,21.94
2022-03-19T13:02:00,prt,22.62
2022-03-19T13:03:00,prt,21.58
2022-03-19T13:04:00,prt,18.79
2022-03-19T13:05:00,prt,18.54
2022-03-19T13:06:00,prt,18.56
2022-03-19T13:07:00,prt,18.69
2022-03-19T13:08:00,prt,17.80
2022-03-19T13:09:00,prt,18.73
2022-03-19T13:10:00,prt,18.90
2022-03-19T13:11:00,prt,21.72
2022-03-19T13:12:00,prt,21.24
2022-03-19T13:13:00,prt,20.99
2022-03-19T13:14:00,prt,20.07
2022-03-19T13:15:00,prt,17.26
2022-03-19T13:16:00,prt,20.71
2022-03-19T13:17:00,prt,20.07
2022-03-19T13:18:00,prt,19.25